STARLINK-4718, 53773

Orbit data source: Space-Track

STARLINK-4718, 53773 is a payload satellite owned by SpaceX/Seattle (US) in LEO that was launched on Sun, 11 Sep 2022 UTC via an FALCON 9 launch vehicle from the Air Force Eastern Test Range (AFETR). Payload-class satellites include a variety of spacecraft equipped with specific instruments for various scientific and technological missions. These include communications satellites like Starlink; space stations such as the ISS; scientific satellites like the Hubble; Earth observation satellites from companies like Planet Labs, Umbra, and HawkEye 360; GPS; miniature CubeSats for education and research; and military/defense satellites.

Loading next visibility...
Identifier
53773, 2022-111A
Orbit
LEO
Last TLE update
9 hours ago
Origin
Manufacturer
SpaceX/Seattle
Mission
Operational Commercial Communications
Bus & Motor
STARLINK, Unknown motor
Mass
305 kg wet, ~290 kg dry
Launch date (UTC)
2022-09-11 (3 years ago)
Launch vehicle
FALCON 9
Launch site
Air Force Eastern Test Range (AFETR)
Object type
Payload
Rocket body
Debris
Shape & HBR
Box + 1 Pan, 8.86 m
Radar Cross Section
13.562 m², Large (>1 m²)

Expand to show TLE details & history

TLE from 9 hours ago
0 STARLINK-4718
1 53773U 22111A   25187.58635256  .00000565  00000-0  53597-4 0  9994
2 53773  53.2179 308.8430 0001093  90.7103 269.4015 15.08838754156696
Epoch: 2025-07-06T14:04Z
TLE epoch observation values (Epoch: 2025-07-06T14:04:20.861Z)
Latitude
0.00004°
Longitude
172.94819°
Altitude
540.653 km
Speed
7.593 km/s
True Right ascension
20h 35m 22s
True Declination
0° 00' 00"
Sunlit
Object was in full shadow at epoch
Visualization orbit readout
Latitude
13.80074°
Longitude
-19.19647°
Altitude
539.651 km
Speed
7.595 km/s
Apparent Right ascension
04h 39m 37s
Apparent Declination
-27° 19' 10"
Sunlit
Object is in daylight
Visualization observer readout
Local Sidereal Time
10:44:31
Azimuth
249.066° W
Elevation
-18.004°
Doppler factor
1
Orbital elements
Apogee altitude
540.748 km
Perigee altitude
539.236 km
Semi-major axis
6,918.129 km
Eccentricity
0.00011
Inclination
53.2179°
RAAN
308.843°
Arg. of periapsis
90.7103°
True anomaly
Unknown
Mean anomaly
269.4015°
Eccentric anomaly
Unknown
Mean motion
3.7719 °/min
Orbital period
95.44 mins
BSTAR
0.000053597
Loading maneuver chart data...
Loading SW <> Apogee altitude chart data...
Loading historical data...
Loading historical data...
Loading historical data...
Loading historical data...
Loading historical data...
Loading historical data...
Loading historical data...

STARLINK-4718 Visibility forecast

Observer location: undefined°, undefined°

Span
Click to sort rows by Start time (UTC) header in descending order
Start Az.
Max El. time (UTC)
Max El. Az.
Max El.
End time (UTC)
End Az.
6 mins2025-07-07 10:56:20.773Z235.441° WSW2025-07-07 10:58:20.773Z263.582° W43.532°2025-07-07 11:02:20.773Z47.731° ENE
4 mins2025-07-07 12:37:20.773Z315.963° NNW2025-07-07 12:38:20.773Z335.231° NNW18.337°2025-07-07 12:41:20.773Z25.049° NE
4 mins2025-07-07 15:58:20.773Z353.305° N2025-07-07 15:59:20.773Z12.648° NNE19.519°2025-07-07 16:02:20.773Z67.236° ENE
6 mins2025-07-07 17:37:20.773Z308.537° NW2025-07-07 17:39:20.773Z290.374° WNW44.459°2025-07-07 17:43:20.773Z132.928° SE
|